Regional Weather Roundup
Issued by NWS

Home | Current Version | Previous Version | Graphics & Text | Print | Product List | Glossary On
Versions: 1 2 3 4 5 6 7 8 9 10 11 12 13 14 15 16 17 18 19 20 21 22 23 24 25 26 27 28 29 30 31 32 33 34 35 36 37 38 39 40 41 42 43 44 45 46 47 48 49 50
201
ASUS43 KLMK 292202
RWRKY
KENTUCKY REGIONAL WEATHER ROUNDUP
NATIONAL WEATHER SERVICE LOUISVILLE KY
600 PM EDT SAT APR 29 2017

NOTE "FAIR" INDICATES FEW OR NO CLOUDS BELOW 12,000 FEET
WITH NO SIGNIFICANT WEATHER AND/OR OBSTRUCTIONS TO VISIBILITY.

KYZ001>023-026-027-061>063-070>075-292300-
WESTERN AND SOUTH CENTRAL KENTUCKY

CITY           SKY/WX    TMP DP  RH WIND       PRES   REMARKS
PADUCAH        MOSUNNY   85  65  51 S17G28    29.81F
HENDERSON        N/A    N/A N/A N/A MISG        N/A
OWENSBORO      MOSUNNY   87  68  52 S20       29.87F HX  90
HOPKINSVILLE   MOSUNNY   86  66  51 S13G21    29.87F
BOWLING GREEN  MOSUNNY   87  67  51 S18G24    29.92F HX  90
GLASGOW        NOT AVBL
$$

KYZ024-025-028>034-038-045-046-053-292300-
NORTH CENTRAL KENTUCKY

CITY           SKY/WX    TMP DP  RH WIND       PRES   REMARKS
LOUISVILLE/SDF CLOUDY    86  68  54 SE15      29.92F
LOUISVILLE/LOU SUNNY     86  67  52 SE12G20   29.93F
FORT KNOX      SUNNY     85  67  54 SE12      29.91F
$$

KYZ035>037-039>044-047>052-055>060-089>105-292300-
NORTHEAST KENTUCKY

CITY           SKY/WX    TMP DP  RH WIND       PRES   REMARKS
LEXINGTON      SUNNY     85  64  49 S10       29.99F
COVINGTON      PTSUNNY   80  65  59 SE12      29.99F
FRANKFORT      MOSUNNY   84  68  58 E7        29.96F
$$

KYZ054-064>069-076>088-106>120-292300-
SOUTHEAST KENTUCKY

CITY           SKY/WX    TMP DP  RH WIND       PRES   REMARKS
JACKSON        CLOUDY    87  62  43 CALM      30.03F
LONDON         CLOUDY    86  62  44 S10       30.01S
SOMERSET       MOSUNNY   84  61  45 S10       30.00F
MIDDLESBORO    SUNNY     89  63  41 SW6       30.02S HX  90
MONTICELLO     CLOUDY    86  67  52 E8G16     30.00F
$$





USA.gov is the U.S. government's official web portal to all federal, state and local government web resources and services.